TimePDT,TemperatureF,Dew PointF,Humidity,Sea Level PressureIn,VisibilityMPH,Wind Direction,Wind SpeedMPH,Gust SpeedMPH,PrecipitationIn,Events,Conditions,WindDirDegrees,DateUTC
12:56 AM,61.0,43.0,52,29.96,10.0,Calm,Calm,-,N/A,,Clear,0,2013-06-04 07:56:00
1:56 AM,57.9,43.0,58,29.96,10.0,Calm,Calm,-,N/A,,Clear,0,2013-06-04 08:56:00
2:56 AM,60.1,43.0,53,29.95,10.0,Calm,Calm,-,N/A,,Clear,0,2013-06-04 09:56:00
3:56 AM,57.0,43.0,59,29.96,10.0,Calm,Calm,-,N/A,,Clear,0,2013-06-04 10:56:00
4:56 AM,54.0,43.0,66,29.98,10.0,Calm,Calm,-,N/A,,Clear,0,2013-06-04 11:56:00
5:56 AM,51.1,39.9,66,29.99,10.0,ENE,3.5,-,N/A,,Clear,60,2013-06-04 12:56:00
6:56 AM,55.0,41.0,59,29.99,10.0,Calm,Calm,-,N/A,,Clear,0,2013-06-04 13:56:00
7:56 AM,66.9,46.9,49,29.99,10.0,Calm,Calm,-,N/A,,Clear,0,2013-06-04 14:56:00
8:56 AM,71.1,46.0,41,29.99,10.0,Variable,3.5,-,N/A,,Clear,0,2013-06-04 15:56:00
9:56 AM,75.0,46.9,37,29.99,10.0,Calm,Calm,-,N/A,,Clear,0,2013-06-04 16:56:00
10:56 AM,78.1,46.9,33,29.99,10.0,WNW,6.9,-,N/A,,Clear,290,2013-06-04 17:56:00
11:56 AM,80.1,45.0,29,29.98,10.0,Variable,4.6,-,N/A,,Clear,0,2013-06-04 18:56:00
12:56 PM,84.9,44.1,24,29.96,10.0,Variable,6.9,-,N/A,,Clear,0,2013-06-04 19:56:00
1:56 PM,86.0,41.0,20,29.95,10.0,Variable,4.6,-,N/A,,Clear,0,2013-06-04 20:56:00
2:56 PM,87.1,43.0,21,29.94,10.0,Variable,6.9,-,N/A,,Clear,0,2013-06-04 21:56:00
3:56 PM,88.0,39.0,18,29.92,10.0,Variable,5.8,-,N/A,,Clear,0,2013-06-04 22:56:00
4:56 PM,87.1,39.0,18,29.92,10.0,Variable,4.6,-,N/A,,Clear,0,2013-06-04 23:56:00
5:56 PM,86.0,37.0,18,29.92,10.0,Variable,5.8,-,N/A,,Clear,0,2013-06-05 00:56:00
6:56 PM,84.0,37.0,19,29.92,10.0,Variable,5.8,-,N/A,,Clear,0,2013-06-05 01:56:00
7:56 PM,80.1,34.0,19,29.92,10.0,Variable,3.5,-,N/A,,Clear,0,2013-06-05 02:56:00
8:56 PM,73.9,37.9,27,29.94,10.0,Variable,3.5,-,N/A,,Clear,0,2013-06-05 03:56:00
9:56 PM,72.0,39.9,31,29.96,10.0,NE,3.5,-,N/A,,Clear,50,2013-06-05 04:56:00
10:56 PM,70.0,37.9,31,29.98,10.0,Calm,Calm,-,N/A,,Clear,0,2013-06-05 05:56:00
11:56 PM,64.9,39.0,39,29.98,10.0,Calm,Calm,-,N/A,,Clear,0,2013-06-05 06:56:00